Location: Fulton
(38.4963°N, 122.7700°W)
Time: 12:11:56
(UTC+00:00)

Daily predictions for brighter satellites

Satellite Brightness Start Highest point End
(mag) Time Altitude Azimuth Time Altitude Azimuth Time Altitude Azimuth
PSLV R/B 3.7 12:01:19 10° NNE 12:05:42 75° E 12:10:01 10° S
Cosmos 2285 Rocket 4.4 12:03:36 20° SW 12:07:47 48° WNW 12:13:51 10° N
Cosmos 468 4.4 12:04:21 10° NNW 12:09:35 69° WSW 12:14:50 10° S
OAO 3 Rocket 3.4 12:07:27 20° WSW 12:10:47 58° S 12:15:39 10° ESE
ARIANE 5 R/B 3.9 12:07:33 10° NNW 12:11:39 24° WNW 12:14:18 16° WSW
Hubble Space Telescope 3.0 12:09:58 10° S 12:11:41 12° SSE 12:13:27 10° SE
H-2A R/B (2) 2.8 12:12:20 15° SSW 12:12:50 15° S 12:14:55 10° SE
Cosmos 1844 Rocket 2.8 12:07:41 10° SSW 12:13:14 78° ESE 12:18:48 10° NNE
deb Chang Zheng 4 4.2 12:11:29 10° NNE 12:15:48 58° E 12:20:05 10° S
Cosmos 2228 3.3 12:12:57 16° SSW 12:16:12 47° W 12:20:28 10° N
Atlas Centaur 2 3.6 12:11:47 16° SW 12:16:59 40° SSE 12:24:35 10° E
Cosmos 1603 4.5 12:14:48 10° NW 12:19:42 30° WSW 12:24:34 10° SSW
Cosmos 1386 Rocket 4.4 12:15:43 10° N 12:21:44 76° W 12:27:43 10° S
Cosmos 1553 Rocket 4.5 12:20:39 12° SW 12:25:44 39° WNW 12:31:25 10° N
SAR-Lupe-4 4.3 12:23:12 10° SSE 12:26:42 57° ENE 12:30:14 10° N
NOSS 2-2 (D) 3.4 12:24:02 10° SSW 12:27:33 63° ESE 12:31:13 10° NE
NOSS 2-2 (E) 3.0 12:24:39 13° SSW 12:27:49 87° ESE 12:31:35 10° NNE
Cosmos 2058 Rocket 3.1 12:25:27 10° SSW 12:29:55 73° W 12:34:23 10° N
Meteor 2-15 Rocket 4.4 12:26:04 10° S 12:32:08 80° W 12:38:14 10° N
Cosmos 1758 Rocket 4.5 12:28:29 10° NNW 12:32:09 28° W 12:35:49 10° SSW
CZ-2C R/B 4.2 12:29:51 10° NNW 12:32:45 21° WNW 12:35:08 12° WSW
USA 267 3.3 12:26:55 10° SE 12:33:27 87° SW 12:40:02 10° NW
Cosmos 883 Rocket 4.5 12:28:55 10° S 12:35:07 78° W 12:41:25 10° N
IDEFIX/ARIANE 42P 4.0 12:33:28 10° NNW 12:37:18 21° WNW 12:41:09 10° WSW
Cosmos 1125 Rocket 4.4 12:34:07 11° SW 12:38:26 32° WNW 12:43:09 10° N
Cosmos 1745 Rocket 4.2 12:34:07 10° NNW 12:40:08 50° W 12:46:04 10° SSW
ADEOS 3.6 12:34:55 10° NNE 12:40:10 88° ESE 12:45:23 10° SSW
SAR-Lupe-1 4.1 12:38:19 10° SSE 12:41:54 86° ENE 12:45:30 10° NNW
H-2A R/B 3.1 12:38:59 10° SSW 12:42:19 24° W 12:45:38 10° NW
Cosmos 1943 4.3 12:38:50 10° NW 12:43:04 22° W 12:47:18 10° SSW
CZ-4B R/B 1.2 12:42:52 10° S 12:46:08 73° W 12:49:21 10° NNW
OAO 2 Rocket 3.9 12:41:37 10° WSW 12:46:39 47° SSE 12:51:38 10° E
Cosmos 494 Rocket 4.1 12:42:37 10° NNW 12:47:37 52° WSW 12:52:38 10° S
SeaSat 1 3.2 12:47:07 10° N 12:51:38 37° WNW 12:56:07 10° WSW
ASTRO F (AKARI) 4.3 12:48:56 10° NNE 12:52:01 80° ESE 12:55:06 10° S
